THOR ABLESTAR DEB, 19293

Orbit data source: Space-Track

THOR ABLESTAR DEB, 19293 is space debris in LEO originally from a launch on Thu, 29 Jun 1961 UTC launched from the Air Force Eastern Test Range (AFETR). Debris objects in space refer to the collection of defunct objects orbiting the Earth. Examples of debris include non-operational satellites, rocket bodies, and fragments generated from explosions, collisions, or faulty payload assembly.

Loading next visibility...
Identifier
19293, 1961-015MA
Orbit
LEO
Country
Flag of USUS
Related business
Manufacturer
Unknown
Mission
Spacecraft
Bus & Motor
Unknown
Mass
Unknown
Launch date (UTC)
1961-06-29 (65 years ago)
Launch vehicle
Unknown
Launch site
Air Force Eastern Test Range (AFETR)
Object type
Payload
Rocket body
Debris
Shape & HBR
Unknown shape, 0.1 m
Radar Cross Section
Small (<0.1 m²)

Expand to show TLE details & history
Last TLE update: 13 hours ago

TLE from 13 hours ago
0 THOR ABLESTAR DEB
1 19293U 61015MA  26128.04324773  .00000145  00000-0  42905-3 0  9999
2 19293  66.9906 336.5207 0338824 225.1151 298.0576 13.12710735822462
Epoch: 2026-05-08T01:02Z
TLE epoch observation values (Epoch: 2026-05-08T01:02:16.603Z)
Latitude
18.65281°
Longitude
-93.12843°
Altitude
1,100.17 km
Speed
7.359 km/s
True Right ascension
09h 53m 17s
True Declination
18° 33' 13"
Sunlit
Object was in daylight at epoch
Visualization orbit readout
Latitude
Unknown
Longitude
Unknown
Altitude
Unknown
Speed
Unknown
Apparent Right ascension
Unknown
Apparent Declination
Unknown
Sunlit
N/A
Visualization observer readout
Local Sidereal Time
21:58:11
Azimuth
Unknown
Elevation
Unknown
Doppler factor
Unknown
Orbital elements
Apogee altitude
1,468.264 km
Perigee altitude
953.98 km
Semi-major axis
7,589.259 km
Eccentricity
0.03388
Inclination
66.9906°
RAAN
336.5207°
Arg. of periapsis
225.1151°
True anomaly
294.56386°
Mean anomaly
298.0576°
Eccentric anomaly
296.3175°
Mean motion
3.2828 °/min
Orbital period
109.66 mins
BSTAR
0.00042905
Loading maneuver chart data...
Computing Atmospheric mass density...
Loading historical data...
Loading historical data...
Loading historical data...
Loading historical data...
Loading historical data...
Loading historical data...
Loading historical data...

Documentation

Showing up to 5 results
|